Flag Weather past 2 weeks in Oradea, Romania

Now
28 °F

Passing clouds.


Feels Like: 21 °F
Forecast: 31 / 42 °F
Wind: 7 mph from Southeast

Location: Oradea Airport

Current Time: Nov 25, 2014 at 3:10:34 AM

Latest Report: Nov 25, 2014 at 2:00 AM


Visibility: 4 mi

Pressure: 30.42 "Hg

Humidity: 93%

Dew point: 27 °F

Location of OradeaLocation

Historic Weather in Oradea — Graph

°F

Oradea temperature yesterday

Maximum temperature yesterday: 46 °F (at 1:00 PM)
Minimum temperature yesterday: 28 °F (at 6:00 AM)
Average temperature yesterday: 37 °F

Past Weeks' High & Low Weather Summary

 TemperatureHumidityPressure
High68 °F (Nov 11, 2:30 PM)100% (Nov 14, 9:00 PM)30.45 "Hg (Nov 14, 9:00 PM)
Low28 °F (Nov 24, 6:00 AM)48% (Nov 16, 2:00 PM)29.86 "Hg (Nov 12, 9:30 PM)
Average47 °F81%30.09 "Hg
* Reported Nov 10 1:00 AM — Nov 25 1:00 AM, Oradea, Weather by CustomWeather, © 2014

Note: Actual official high and low records may vary slightly from our data, if they occured in-between our weather recording intervals... More about our weather records

Advertising

Oradea weather history for previous 24 hours

 ConditionsComfort  
Time TempWeatherWind HumidityBarometerVisibility
1:00 AM
Nov 25
30 °FChilly.7 mph86%30.42 "Hg4 mi
12:00 AM30 °FChilly.7 mph86%30.39 "Hg4 mi
11:00 PM
Nov 24
30 °FIce fog.7 mph93%30.39 "Hg2 mi
10:30 PM32 °FIce fog.5 mph87%30.39 "Hg3 mi
10:00 PM32 °FClear.7 mph93%30.39 "Hg10 mi
9:30 PM32 °FClear.7 mph93%30.39 "Hg10 mi
9:00 PM32 °FClear.5 mph93%30.39 "Hg10 mi
8:30 PM32 °FClear.No wind93%30.39 "Hg5 mi
8:00 PM32 °FClear.No wind93%30.39 "Hg5 mi
7:30 PM34 °FClear.2 mph93%30.36 "Hg5 mi
7:00 PM34 °FClear.2 mph87%30.36 "Hg5 mi
6:30 PM36 °FClear.No wind93%30.36 "Hg5 mi
6:00 PM36 °FClear.5 mph87%30.36 "Hg10 mi
5:30 PM39 °FClear.5 mph81%30.36 "Hg10 mi
5:00 PM41 °FClear.5 mph76%30.36 "Hg10 mi
4:30 PM43 °FSunny.7 mph76%30.36 "Hg10 mi
4:00 PM45 °FSunny.7 mph71%30.36 "Hg10 mi
3:30 PM46 °FSunny.7 mph57%30.36 "Hg10 mi
3:00 PM46 °FPassing clouds.7 mph57%30.36 "HgN/A
2:30 PM46 °FScattered clouds.7 mph57%30.36 "HgN/A
2:00 PM46 °FPassing clouds.5 mph57%30.36 "HgN/A
1:30 PM46 °FPassing clouds.5 mph57%30.36 "HgN/A
1:00 PM46 °FSunny.2 mph50%30.36 "Hg10 mi
12:00 PM45 °FPassing clouds.5 mph61%30.36 "HgN/A
11:30 AM43 °FSunny.7 mph71%30.39 "Hg10 mi
11:00 AM41 °FSunny.5 mph70%30.39 "Hg10 mi
10:30 AM39 °FSunny.7 mph75%30.39 "Hg10 mi
10:00 AM37 °FChilly.7 mph81%30.39 "HgN/A
9:30 AM36 °FSunny.7 mph81%30.39 "Hg10 mi
9:00 AM34 °FSunny.5 mph87%30.39 "Hg10 mi
8:30 AM32 °FSunny.5 mph87%30.39 "Hg10 mi
8:00 AM32 °FPassing clouds.5 mph87%30.39 "HgN/A
7:30 AM32 °FClear.5 mph87%30.39 "Hg10 mi
7:00 AM32 °FClear.7 mph93%30.39 "Hg10 mi
6:30 AM32 °FClear.7 mph87%30.36 "Hg10 mi
6:00 AM28 °FClear.5 mph93%30.36 "Hg10 mi
5:30 AM32 °FClear.7 mph93%30.36 "Hg10 mi
4:00 AM32 °FChilly.7 mph93%30.39 "Hg4 mi
3:00 AM32 °FLight fog.5 mph100%30.39 "Hg2 mi
Weather by CustomWeather, © 2014

See weather overviewHow to use our weather pages